Location: Davayat
(45.9471°N, 3.1105°E)
Time: 17:42:19
(UTC+00:00)

Cosmos 1603 - Pass Details

Date: 01 December 2020
Orbit: 831 x 859 km, 71.0° (Epoch: 17 January)

Event Time Altitude Azimuth Distance (km) Brightness Sun altitude
Rises 17:45:31 0° 195° (SSW) 3,374 7.2 -17.0°
Reaches altitude 10° 17:47:58 10° 193° (SSW) 2,441 6.4 -17.4°
Maximum altitude 17:53:30 67° 112° (ESE) 904 3.6 -18.4°
Enters shadow 17:56:52 24° 36° (NE) 1,654 4.8 -19.0°
